Location: La Silve
(44.2414°N, 5.8889°E)
Time: 11:56:55
(UTC+00:00)

Helios 1A Rocket - Pass Details

Date: 01 December 2020
Orbit: 564 x 585 km, 98.3° (Epoch: 26 January)

Event Time Altitude Azimuth Distance (km) Brightness Sun altitude
Exits shadow 17:34:17 26° 37° (NE) 1,145 4.0 -16.6°
Drops below altitude 10° 17:36:39 10° 7° (N) 1,869 5.3 -17.0°
Sets 17:38:58 0° 357° (N) 2,772 6.3 -17.4°
